Temperature
12 12 12 13 13 13 13 14 14 14 14 14 14 14 14 14 14 15 15 15 15 15 15 15 15 15 15 15 15 15 15 15 15 15 15 15 15 15 15 15 15 15 15
12 12 12 13 13 13 13 13 13 13 13 14 14 14 14 14 14 14 14 14 14 14 15 15 15 15 15 15 15 15 15 15 15 15 15 15 15 15 15 14 15 15 15
12 12 12 12 12 13 13 13 13 13 13 13 13 13 14 14 14 14 14 14 14 14 14 14 14 14 14 14 15 14 14 14 14 14 14 14 14 14 14 14 14 14 14
12 12 12 12 12 13 13 13 13 13 13 13 13 13 13 13 13 14 14 14 14 14 14 14 14 14 14 14 14 14 14 14 14 14 14 14 14 14 14 14 14 14 14
12 12 12 12 12 12 12 13 13 13 13 13 13 13 13 13 13 13 13 13 13 13 13 14 14 14 14 14 14 14 14 14 14 14 14 14 14 14 14 14 14 14 14
11 11 12 12 12 12 12 12 12 12 12 12 12 12 13 13 13 13 13 13 13 13 13 13 13 13 13 13 13 13 13 13 14 14 14 14 14 14 14 14 14 14 14
11 11 11 12 12 12 12 12 12 12 12 12 12 12 12 13 13 13 13 13 13 13 13 13 13 13 13 13 13 13 13 13 13 13 13 13 13 13 13 13 14 14 13
11 11 11 11 11 12 12 12 12 12 12 12 12 12 12 12 12 12 12 12 12 12 12 12 12 12 12 12 12 12 13 13 13 13 13 13 13 13 13 13 13 13 13
11 11 11 11 11 11 11 11 11 11 11 11 12 12 12 12 12 12 12 12 12 12 12 12 12 12 12 12 12 12 12 12 12 12 12 13 12 12 12 12 12 13 13
10 10 10 10 11 11 11 11 11 11 11 11 11 11 11 11 11 11 11 11 11 11 11 11 11 12 12 12 12 12 12 12 12 12 12 12 12 12 12 12 12 12 12
10 10 10 10 10 10 11 11 11 11 11 11 11 11 11 11 11 11 11 11 11 11 11 11 11 11 11 11 11 11 11 12 12 12 12 12 12 12 12 12 12 12 12
10 9 9 10 10 10 10 10 10 10 10 10 10 10 10 10 10 10 10 10 10 10 10 10 10 11 11 11 11 11 11 11 11 11 11 11 11 11 11 11 11 11 11
9 9 9 9 9 9 9 9 10 10 10 10 10 10 10 10 10 10 10 10 10 10 10 10 10 10 10 10 10 10 10 11 11 11 11 11 11 11 11 11 11 11 11
9 9 9 9 9 9 9 9 9 9 9 9 9 9 9 9 9 9 9 9 9 9 9 9 9 9 9 9 10 10 10 10 10 10 10 10 10 10 10 10 10 10 10
8 8 8 9 9 9 8 8 8 8 9 9 8 8 8 8 9 8 8 9 9 9 9 9 9 9 9 9 9 9 9 9 9 9 9 10 10 10 10 10 10 10 10
8 8 8 8 8 8 8 8 8 8 8 8 8 8 8 8 8 8 8 8 8 8 8 8 8 8 8 8 8 9 9 9 9 9 9 9 9 9 9 9 9 9 9
8 8 8 8 7 7 8 7 7 8 7 7 7 7 7 7 7 7 7 7 7 7 7 7 7 7 8 8 8 8 8 8 8 8 8 8 8 8 9 9 9 9 9
7 7 7 7 7 7 7 7 7 7 7 7 7 7 7 7 7 7 7 7 7 7 7 7 7 7 7 7 7 7 7 8 8 8 8 8 8 8 8 8 8 8 8
7 7 7 7 7 7 6 6 6 6 6 6 6 6 6 6 6 6 6 6 6 6 6 6 6 6 6 6 6 7 7 7 7 7 7 7 7 7 7 7 7 7 7
7 6 6 6 6 6 6 6 6 6 6 6 6 6 6 6 6 5 5 5 5 5 6 5 5 6 5 5 6 6 6 6 6 6 6 6 6 6 6 7 7 7 7
6 6 6 6 6 6 5 5 5 5 5 5 5 5 5 5 5 5 5 5 5 5 5 5 5 5 5 5 5 5 5 5 5 5 5 5 5 6 6 6 6 6 6
6 6 6 5 5 5 5 5 5 5 5 5 5 4 4 4 4 4 4 4 4 4 4 4 4 4 4 4 3 4 3 4 4 4 4 5 5 5 5 5 5 5 6
5 5 5 5 5 4 4 4 4 4 4 4 4 4 4 4 4 4 4 4 4 4 4 3 3 3 3 3 3 3 3 3 3 3 4 4 4 4 4 4 5 5 5
5 5 5 4 4 4 4 4 4 4 4 4 3 3 3 3 3 3 3 3 3 3 3 3 3 3 3 3 2 2 2 2 2 2 3 3 3 3 4 4 4 4 4
4 4 4 4 4 3 3 3 3 3 3 3 3 3 3 3 3 3 3 2 3 3 3 2 2 2 2 2 2 2 2 2 2 2 2 2 3 3 3 3 3 3 3
4 4 3 3 3 3 3 3 3 3 3 3 3 2 2 2 2 2 2 2 2 2 2 2 2 2 1 1 2 2 2 1 1 1 1 2 2 2 3 3 3 3 3
Wind_Speed
2 4 5 6 7 8 9 10 10 11 12 11 11 11 12 12 12 12 12 12 11 11 11 12 12 12 12 12 12 12 12 11 11 10 10 9 9 10 10 10 10 9 9
1 4 5 7 7 8 9 9 10 10 11 12 11 11 11 12 12 12 11 12 12 12 11 12 12 12 12 12 12 11 11 11 12 11 10 9 8 8 8 9 8 7 8
4 5 6 7 8 9 9 9 9 10 10 10 11 11 11 11 11 12 11 11 11 11 11 12 12 12 12 12 12 11 11 11 11 11 10 8 7 7 7 8 8 8 8
6 6 5 7 9 9 9 9 9 8 9 9 10 11 11 11 11 11 11 11 11 11 11 11 11 11 11 11 11 11 10 10 10 10 8 8 6 6 6 6 7 7 7
7 7 6 7 8 9 9 9 9 8 7 8 9 10 10 11 11 10 10 10 10 10 10 10 11 11 11 10 10 10 9 9 9 9 8 7 7 6 5 5 5 5 6
6 7 7 8 8 9 9 9 9 8 7 7 8 9 9 10 11 10 9 9 9 9 10 10 10 10 10 9 10 10 9 9 8 7 7 6 6 6 5 4 4 4 4
6 7 8 8 8 9 9 9 9 10 9 8 9 8 9 9 9 9 9 9 8 8 9 9 9 9 8 8 9 9 10 9 8 7 6 5 5 5 4 3 3 2 3
6 7 8 9 9 9 9 9 10 10 9 9 9 9 8 8 8 9 9 9 8 7 8 8 8 8 8 8 8 9 10 9 7 6 5 5 4 4 4 2 2 2 1
7 7 8 8 8 8 9 9 10 10 10 9 9 9 9 8 8 9 9 9 8 7 7 7 7 8 8 8 8 8 9 9 7 5 5 4 4 4 4 4 2 1 1
6 6 6 7 8 8 8 8 9 10 10 10 9 9 9 9 8 8 9 9 9 8 6 6 7 7 7 7 8 8 9 8 6 5 4 4 4 4 4 3 3 1 2
4 4 6 6 7 7 7 7 9 9 9 9 9 9 9 8 8 8 8 8 8 8 7 6 6 6 7 7 7 8 8 6 5 5 4 3 4 3 3 4 4 3 2
2 2 4 5 6 7 6 7 8 8 8 9 9 9 8 8 8 7 8 8 8 8 8 7 7 6 6 6 7 7 6 6 6 5 4 4 4 4 3 4 3 3 2
2 2 2 4 6 6 6 6 6 7 7 8 8 8 8 8 8 8 7 7 7 7 8 7 7 6 6 6 5 6 6 6 5 5 5 5 5 4 3 2 3 2 3
2 2 2 4 5 6 6 5 6 6 6 6 7 8 7 6 6 6 6 6 7 6 7 7 6 6 6 6 5 5 6 5 5 5 5 6 5 5 3 3 2 2 2
2 2 2 3 4 5 5 4 5 5 5 5 6 7 6 5 4 5 5 6 6 6 5 5 5 5 5 5 5 5 5 5 5 5 5 6 6 6 5 4 2 2 2
3 2 1 2 4 4 4 4 4 4 4 5 6 6 6 5 4 4 4 5 5 6 5 4 4 3 3 4 4 4 4 4 4 4 4 5 6 6 6 5 3 3 2
3 2 2 2 4 4 3 3 4 4 4 4 5 6 6 5 4 4 3 4 5 6 6 5 4 4 3 3 3 4 3 3 3 4 4 4 5 6 6 6 5 3 2
3 2 2 2 3 3 3 3 3 4 4 4 5 5 5 6 5 4 3 3 5 5 5 3 2 3 3 2 3 3 3 3 3 3 4 4 4 4 5 6 6 4 3
3 2 2 2 2 2 2 3 3 3 4 4 4 5 5 5 5 4 4 4 5 4 4 3 3 2 2 2 2 2 2 2 2 3 4 4 5 5 5 6 7 6 5
2 2 2 2 2 2 2 2 2 3 3 3 4 4 5 5 5 4 4 5 5 3 3 2 2 2 1 2 3 3 3 2 2 2 2 4 5 6 6 6 6 7 7
2 2 2 2 1 1 1 1 1 1 1 1 3 4 5 5 4 4 3 4 4 2 2 2 2 2 2 2 2 3 3 2 2 2 2 3 4 5 6 6 6 6 6
2 2 2 2 1 1 1 1 1 0 0 1 2 3 4 4 4 3 3 2 2 1 2 2 2 1 2 2 1 1 1 2 3 3 2 2 2 3 4 4 5 6 5
2 2 2 1 1 1 1 1 2 2 1 1 2 1 4 4 4 3 2 2 2 1 1 2 1 1 1 2 1 1 1 2 3 2 2 2 3 3 3 2 3 4 5
2 1 2 1 1 1 1 2 2 1 0 1 1 1 2 3 3 3 2 2 2 1 1 1 1 1 0 1 1 1 1 1 1 2 2 2 3 3 3 3 2 3 4
1 1 1 2 1 1 1 1 2 1 1 0 0 0 1 2 3 3 2 2 2 1 1 1 2 1 1 1 1 1 1 1 1 1 3 4 4 3 3 2 1 2 3
0 1 1 2 1 1 1 1 2 2 1 0 0 1 1 1 2 3 3 2 2 2 2 2 2 2 2 1 2 1 1 1 2 1 2 4 5 4 4 2 2 1 2
Wind_Direction
331 352 33 48 55 56 57 62 62 60 58 58 58 58 57 57 59 61 63 65 66 67 65 64 64 63 62 63 63 62 59 59 60 65 70 79 85 89 89 89 87 86 89
33 35 47 48 55 57 58 60 61 60 59 56 55 56 56 57 57 58 60 64 65 65 65 64 64 62 60 60 62 62 59 58 56 57 58 66 74 84 92 94 93 90 90
67 54 47 49 54 54 54 57 60 60 58 58 56 55 55 55 55 57 61 64 65 64 63 62 61 61 59 56 56 57 56 57 59 53 48 50 62 77 87 90 92 96 95
74 59 48 54 54 51 50 52 56 61 62 61 58 56 54 53 55 58 61 62 63 64 63 62 59 59 57 55 52 53 53 54 54 51 45 41 51 73 82 83 85 91 94
66 58 51 61 58 53 50 49 50 56 62 64 62 58 55 52 54 56 58 59 60 60 62 62 60 58 54 50 49 48 50 51 45 46 44 41 43 60 73 79 84 89 91
64 61 57 64 60 55 51 49 47 47 59 70 67 61 58 55 54 56 55 56 57 57 57 59 59 57 51 49 46 46 46 42 41 45 42 40 45 51 54 69 85 95 94
72 62 60 64 60 55 51 48 47 48 61 69 67 60 57 55 54 57 55 55 54 55 54 53 52 54 52 48 45 44 42 36 42 46 43 38 43 44 45 59 75 104 111
83 66 61 61 57 53 51 50 49 51 58 62 60 57 54 53 54 55 53 52 52 51 50 49 48 49 48 45 41 38 38 36 42 44 39 36 41 42 44 54 66 74 115
78 66 54 54 54 51 50 50 49 51 54 55 53 51 51 50 54 56 52 50 45 45 46 46 47 44 42 39 36 34 33 34 40 40 34 29 34 29 28 35 40 53 90
68 60 52 46 44 42 48 51 49 51 51 48 46 43 44 46 46 51 49 49 44 40 39 42 42 40 38 35 33 31 30 33 36 27 22 28 33 29 27 30 32 27 65
65 53 49 47 41 40 47 49 52 50 48 47 44 42 41 39 39 42 44 45 42 36 32 36 36 38 37 34 34 30 28 29 30 21 15 23 23 24 32 33 29 28 43
71 52 44 48 43 41 44 43 48 47 46 44 40 40 40 42 42 40 39 38 37 32 26 27 32 35 36 34 33 29 28 26 25 15 6 12 16 22 29 30 19 21 22
131 79 55 50 50 49 45 45 46 45 43 42 40 39 40 44 43 38 37 31 31 27 24 19 28 33 39 38 34 31 29 27 24 12 4 7 11 11 13 17 20 11 16
111 86 74 59 56 53 51 48 48 44 41 39 38 41 43 39 35 30 30 23 23 20 16 17 22 31 37 39 40 37 33 29 24 15 8 3 1 358 351 353 3 15 16
124 102 84 67 60 53 52 49 47 41 40 39 40 41 43 42 33 26 21 20 18 18 13 9 16 32 38 34 33 35 29 25 22 16 11 3 358 357 354 345 350 9 19
149 136 109 84 61 58 50 44 44 42 41 43 40 39 44 46 36 29 21 16 13 13 11 11 23 30 42 41 26 23 22 20 23 17 10 4 1 358 354 345 338 340 6
163 142 125 106 66 63 59 48 46 45 48 41 37 38 44 48 43 35 30 17 7 13 16 20 29 33 36 33 10 6 16 15 17 14 9 12 10 9 2 355 348 345 350
151 143 132 92 81 70 66 62 52 48 50 41 40 38 40 47 46 40 31 14 9 17 18 19 21 15 14 15 360 346 359 5 2 16 22 21 25 21 13 3 356 352 354
157 151 134 129 120 93 67 63 56 56 54 44 41 37 36 42 43 40 29 15 18 19 19 11 3 8 11 7 354 345 345 345 348 31 33 33 36 36 28 13 9 3 1
145 143 131 126 121 96 67 63 53 48 40 39 36 35 38 36 38 38 31 20 21 21 14 7 359 7 15 360 353 352 336 334 10 31 28 43 44 40 32 25 24 16 5
127 126 123 114 137 115 93 93 69 5 346 6 24 35 36 32 31 33 31 25 24 18 358 2 4 11 13 10 18 357 349 353 24 20 24 39 38 38 36 30 27 21 10
166 163 144 144 166 166 172 183 160 156 248 351 18 25 29 27 23 27 36 31 21 13 10 8 18 6 348 6 24 16 351 346 8 348 349 5 5 20 21 19 21 16 11
178 184 152 152 146 163 111 88 73 55 35 15 359 354 5 16 16 22 34 29 20 21 332 331 359 11 318 331 15 107 177 240 309 307 335 336 346 345 340 6 11 9 6
201 171 123 125 122 105 113 141 143 148 213 284 285 294 346 3 6 14 18 16 9 5 303 292 334 320 276 293 316 324 278 226 245 297 310 324 327 319 315 318 337 349 357
192 151 126 113 125 133 127 158 155 168 208 240 350 303 320 343 346 351 354 355 348 335 303 296 308 293 279 276 285 295 317 322 292 269 292 309 316 304 302 293 302 340 341
146 107 110 123 112 146 140 157 161 164 188 137 335 285 298 298 311 325 337 337 329 320 293 279 274 276 268 292 303 286 266 256 270 260 274 298 299 302 306 293 280 297 318
Height
1539 1539 1539 1538 1538 1538 1537 1536 1536 1535 1535 1535 1535 1534 1534 1533 1532 1532 1531 1531 1531 1531 1531 1531 1530 1530 1530 1530 1530 1529 1529 1529 1529 1529 1529 1529 1529 1529 1529 1529 1529 1529 1529
1539 1539 1539 1538 1538 1538 1537 1536 1536 1535 1535 1535 1535 1534 1534 1533 1532 1532 1531 1531 1531 1531 1531 1531 1531 1531 1530 1530 1530 1530 1530 1529 1529 1529 1529 1529 1530 1530 1529 1529 1530 1530 1530
1538 1539 1538 1538 1538 1537 1537 1536 1536 1535 1535 1535 1535 1534 1534 1533 1532 1532 1531 1531 1531 1532 1531 1531 1531 1531 1530 1530 1530 1530 1530 1530 1530 1529 1530 1530 1530 1530 1530 1530 1530 1530 1530
1538 1538 1538 1538 1537 1537 1537 1536 1536 1535 1535 1534 1534 1534 1534 1533 1532 1532 1531 1531 1532 1532 1532 1531 1531 1531 1530 1530 1530 1530 1530 1530 1530 1530 1530 1530 1530 1530 1530 1530 1530 1530 1530
1538 1538 1538 1537 1537 1537 1536 1535 1535 1534 1534 1533 1533 1533 1533 1533 1532 1532 1532 1531 1532 1532 1531 1531 1531 1530 1530 1530 1530 1530 1529 1530 1529 1530 1529 1529 1529 1530 1529 1529 1529 1530 1530
1538 1537 1537 1537 1537 1536 1536 1535 1534 1533 1531 1531 1532 1532 1532 1532 1532 1532 1532 1531 1531 1531 1531 1531 1530 1530 1530 1530 1529 1529 1529 1529 1529 1529 1529 1529 1529 1529 1529 1529 1529 1529 1529
1537 1537 1537 1536 1536 1536 1535 1535 1534 1532 1530 1530 1531 1532 1532 1532 1531 1531 1531 1531 1531 1531 1530 1530 1530 1529 1529 1529 1529 1528 1528 1528 1528 1528 1528 1528 1528 1528 1528 1528 1528 1528 1529
1537 1536 1536 1536 1535 1535 1535 1534 1533 1532 1531 1531 1531 1531 1531 1531 1531 1531 1530 1530 1530 1530 1529 1529 1529 1529 1528 1528 1528 1528 1527 1527 1527 1527 1527 1527 1527 1527 1527 1527 1527 1527 1527
1536 1536 1536 1535 1535 1534 1534 1533 1533 1532 1532 1531 1531 1531 1530 1530 1530 1529 1529 1529 1528 1528 1528 1528 1528 1528 1527 1527 1527 1527 1526 1526 1526 1526 1526 1526 1526 1526 1526 1526 1525 1526 1526
1536 1535 1535 1535 1534 1534 1533 1532 1532 1531 1531 1530 1530 1530 1529 1529 1529 1528 1528 1528 1527 1527 1527 1527 1526 1526 1526 1526 1525 1525 1525 1525 1525 1525 1524 1524 1524 1524 1524 1524 1524 1524 1524
1535 1535 1534 1534 1534 1533 1532 1532 1531 1531 1530 1530 1529 1529 1528 1528 1528 1527 1527 1526 1526 1525 1525 1525 1525 1524 1524 1524 1524 1524 1524 1523 1523 1523 1523 1523 1523 1523 1522 1522 1522 1522 1522
1533 1533 1533 1533 1533 1532 1531 1531 1530 1530 1529 1528 1528 1527 1527 1527 1526 1526 1525 1525 1524 1524 1524 1523 1523 1523 1522 1522 1522 1522 1522 1521 1521 1521 1521 1521 1521 1521 1521 1521 1521 1520 1520
1532 1532 1532 1532 1531 1531 1530 1530 1529 1528 1528 1527 1526 1526 1525 1525 1525 1524 1523 1523 1523 1523 1522 1521 1521 1521 1520 1520 1520 1520 1519 1519 1519 1519 1519 1519 1519 1519 1519 1519 1519 1519 1518
1531 1531 1531 1531 1530 1529 1529 1528 1527 1527 1526 1525 1525 1524 1524 1523 1523 1522 1522 1521 1521 1521 1520 1519 1519 1518 1518 1518 1518 1517 1517 1517 1517 1516 1516 1516 1516 1517 1517 1516 1516 1516 1516
1530 1530 1529 1529 1528 1528 1527 1527 1526 1525 1524 1523 1523 1522 1522 1521 1521 1520 1520 1519 1519 1519 1518 1517 1517 1516 1516 1516 1515 1515 1515 1514 1514 1514 1514 1514 1514 1514 1514 1514 1514 1513 1513
1528 1528 1528 1527 1526 1526 1525 1525 1524 1523 1522 1522 1521 1520 1520 1519 1519 1519 1518 1517 1517 1516 1516 1515 1514 1514 1513 1513 1513 1513 1512 1512 1512 1512 1511 1511 1511 1511 1511 1511 1511 1511 1510
1526 1526 1526 1525 1525 1524 1523 1523 1522 1522 1521 1520 1519 1519 1518 1518 1517 1517 1516 1515 1515 1514 1513 1512 1512 1511 1510 1510 1510 1510 1510 1510 1509 1509 1509 1509 1509 1508 1508 1508 1508 1507 1507
1524 1524 1523 1523 1523 1522 1522 1521 1520 1520 1519 1518 1518 1517 1516 1516 1515 1515 1514 1513 1512 1512 1511 1510 1509 1508 1508 1507 1507 1507 1507 1507 1507 1507 1506 1506 1506 1506 1505 1505 1505 1504 1504
1522 1521 1521 1521 1520 1520 1520 1519 1518 1517 1517 1516 1516 1515 1514 1514 1513 1512 1512 1511 1510 1509 1509 1508 1507 1506 1505 1504 1504 1504 1504 1504 1504 1504 1504 1503 1503 1503 1502 1502 1502 1502 1501
1519 1519 1519 1518 1518 1518 1517 1517 1516 1515 1515 1514 1513 1513 1512 1511 1511 1510 1509 1509 1508 1507 1506 1505 1505 1504 1503 1502 1501 1501 1501 1501 1501 1501 1501 1501 1500 1500 1500 1499 1499 1499 1499
1516 1516 1516 1515 1515 1515 1514 1514 1513 1512 1512 1512 1511 1510 1510 1509 1509 1508 1507 1506 1505 1505 1504 1503 1502 1501 1500 1500 1499 1498 1498 1498 1498 1499 1499 1498 1498 1498 1497 1497 1496 1496 1496
1513 1513 1513 1513 1512 1512 1512 1512 1511 1510 1510 1509 1509 1508 1507 1507 1506 1506 1504 1504 1503 1502 1501 1501 1500 1498 1498 1498 1498 1496 1496 1496 1496 1496 1496 1496 1495 1495 1494 1494 1493 1493 1492
1510 1510 1510 1510 1510 1510 1510 1509 1509 1508 1507 1507 1506 1505 1505 1504 1503 1503 1502 1501 1500 1499 1498 1498 1497 1496 1496 1496 1497 1497 1496 1494 1493 1493 1493 1493 1493 1492 1492 1491 1490 1490 1489
1508 1508 1508 1508 1508 1507 1507 1506 1505 1504 1504 1503 1503 1503 1502 1501 1501 1500 1499 1498 1498 1497 1496 1495 1495 1495 1494 1493 1494 1494 1495 1494 1493 1490 1490 1490 1490 1489 1489 1488 1487 1487 1486
1506 1505 1505 1505 1505 1505 1504 1504 1503 1503 1502 1501 1501 1500 1499 1498 1498 1497 1496 1495 1495 1494 1493 1493 1492 1492 1492 1491 1491 1491 1491 1491 1491 1490 1487 1486 1486 1486 1486 1485 1484 1484 1483
1503 1503 1503 1503 1503 1502 1502 1501 1501 1500 1499 1498 1498 1497 1496 1495 1495 1494 1493 1492 1491 1491 1490 1490 1489 1489 1489 1489 1488 1488 1488 1488 1487 1487 1485 1483 1482 1482 1482 1481 1481 1481 1480